Location: Brantley
(31.5822°N, 86.2569°W)
Time: 03:34:03
(UTC+00:00)

Vanguard 2 - Pass Details

Date: 23 February 2026
Orbit: 553 x 2896 km, 32.9° (Epoch: 7 March)

Event Time Altitude Azimuth Distance (km) Brightness Sun altitude
Rises 04:52:27 0° 188° (S) 6,508 - -63.4°
Maximum altitude 05:04:57 10° 147° (SSE) 4,793 - -65.0°
Drops below altitude 10° 05:05:01 10° 147° (SSE) 4,788 - -65.0°
Sets 05:14:43 0° 104° (ESE) 4,938 - -66.0°
